Regional Weather Roundup
Issued by NWS Cleveland, OH

Home | Current Version | Previous Version | Text Only | Print | Product List | Glossary Off
Versions: 1 2 3 4 5 6 7 8 9 10 11 12 13 14 15 16 17 18 19 20 21 22 23 24 25 26 27 28 29 30 31 32 33 34 35 36 37 38 39 40 41 42 43 44 45 46 47 48 49 50

000
ASUS41 KCLE 200802
RWRCLE
OHIO REGIONAL WEATHER ROUNDUP
NATIONAL WEATHER SERVICE CLEVELAND, OH
300 AM EST MON FEB 20 2017

NOTE: "FAIR" INDICATES FEW OR NO CLOUDS BELOW 12,000 FEET WITH NO
SIGNIFICANT WEATHER AND/OR OBSTRUCTIONS TO VISIBILITY.

OHZ001>008-015>018-024>027-034-035-043-044-200900-
   NORTHWEST OHIO

CITY           SKY/WX    TMP DP  RH WIND       PRES   REMARKS
DEFIANCE       PTCLDY    34  30  85 CALM      30.18R
FINDLAY        CLOUDY    39  31  72 CALM      30.16S
TOLEDO EXPRESS CLOUDY    38  34  85 NE5       30.19R
TOLEDO EXEC    CLOUDY    39  35  86 NE5       30.19S
LIMA           CLOUDY    39  38  96 CALM      30.17S FOG
$$

OHZ009>014-019>023-028>033-038-089-200900-
   NORTHEAST OHIO

CITY           SKY/WX    TMP DP  RH WIND       PRES   REMARKS
CLE-HOPKINS    PTCLDY    37  31  78 CALM      30.20R
CLE-LAKEFRONT  CLOUDY    37  33  85 NE5       30.18R
CUY CO. ARPT   NOT AVBL
LORAIN-ELYRIA  CLEAR     35  30  82 CALM      30.18R
ASHTABULA      CLEAR     31  30  96 CALM      30.19R
AKRON-CANTON   CLEAR     38  36  92 CALM      30.17S FOG
WOOSTER        FOG       34  32  92 CALM      30.17S VSB 1/4
MANSFIELD      CLOUDY    41  39  93 SW8       30.17S FOG
YOUNGSTOWN     PTCLDY    36  30  79 CALM      30.17R
$$

OHZ042-051>053-060>062-070>072-077>081-200900-
  SOUTHWEST OHIO

CITY           SKY/WX    TMP DP  RH WIND       PRES   REMARKS
CINC-COVINGTON PTCLDY    39  39 100 CALM      30.17S FOG
CINC-LUNKEN    FOG       40  40 100 CALM      30.20S VSB<1/4
HAMILTON       FOG       34  34 100 CALM      30.19S VSB<1/4
DAYTON         FOG       39  38  96 SE5       30.18F VSB 1
WRIGHT-PAT AFB NOT AVBL
DAYTON GENERAL FOG       36  36 100 CALM      30.17S VSB 1/4
WILMINGTON     FOG       36  35  96 CALM      30.17F VSB 1/4
$$

OHZ036-037-039>041-045>050-054>059-063>069-073>076-082>088-200900-
  CENTRAL AND SOUTHEAST OHIO

CITY           SKY/WX    TMP DP  RH WIND       PRES   REMARKS
COLUMBUS       FOG       39  37  92 CALM      30.18S VSB 3/4
OSU AIRPORT    FOG       36  36 100 CALM      30.18S VSB<1/4
BOLTON FIELD   NOT AVBL
RICKENBACK AFB NOT AVBL
NEWARK         FOG       33  31  92 CALM      30.18S VSB 1/4
MARION         FOG       36  35  96 S5        30.18S VSB 1/4
LANCASTER      FOG       32  31  96 CALM      30.19S VSB 1/2
ZANESVILLE     FOG       35  34  96 CALM      30.18F VSB 1/4
NEW PHILLY     NOT AVBL
$$




USA.gov is the U.S. government's official web portal to all federal, state and local government web resources and services.